Tracking 35275 objects as of 8-Sep-2026
HD Live streaming from Space Station
objects crossing your sky now

SL-6 PLAT


SL-6 PLAT is no longer on orbit


NORAD ID: 18982
Int'l Code: 1988-022C
Launch date: March 17, 1988
Source: Commonwealth of Independent States (former USSR) (CIS)
Launch site: PLESETSK MISSILE AND SPACE COMPLEX (PKMTR)
Decay date: 1988-04-10
Your satellite tracking list
Your tracking list is empty




NASA's NSSDC Master Catalog

Two Line Element Set (TLE):
1 18982U 88022  C 88101.48698375  .24493942 +39544-4 +32383-3 0  9994
2 18982 062.8024 349.7658 0034110 120.8740 239.7432 16.45624935003744
Source of the keplerian elements: AFSPC